Showing default

TDS 1, 40076

Orbit data source: Space-Track

TDS 1, 40076 is a payload satellite owned by UK TSB (UK) in SSO that was launched on Tue, 08 Jul 2014 UTC via a SOYUZ-2-1B launch vehicle from the Tyuratam Missile And Space Complex (TTMTR). Payload-class satellites include a variety of spacecraft equipped with specific instruments for various scientific and technological missions. These include communications satellites like Starlink; space stations such as the ISS; scientific satellites like the Hubble; Earth observation satellites from companies like Planet Labs, Umbra, and HawkEye 360; GPS; miniature CubeSats for education and research; and military/defense satellites.

Loading next visibility...
Identifier
40076, 2014-037H
Orbit
SSO
Last TLE update
17 hours ago
Origin
Manufacturer
SSTL (Astrium)
Mission
Partially operational Civil Technology
Bus & Motor
SSTL-150, AOCS
Mass
157 kg wet, 157 kg dry
Launch date (UTC)
2014-07-08 (11 years ago)
Launch vehicle
SOYUZ-2-1B
Launch site
Tyuratam Missile And Space Complex (TTMTR)
Object type
Payload
Rocket body
Debris
Shape & HBR
Box, 1 m
Radar Cross Section
1.500 m², Medium (>0.1 m² and < 1m²)

Expand to show TLE details & history

TLE from 17 hours ago
0 TDS 1
1 40076U 14037H   25183.45107563  .00004092  00000-0  28632-3 0  9991
2 40076  98.3440 138.9390 0007742  16.3892 343.7582 15.05894624595464
Epoch: 2025-07-02T10:49Z
TLE epoch observation values (Epoch: 2025-07-02T10:49:32.934Z)
Latitude
0.00002°
Longitude
55.81978°
Altitude
546.654 km
Speed
7.592 km/s
True Right ascension
09h 15m 45s
True Declination
0° 00' 00"
Sunlit
Object was in daylight at epoch
Visualization orbit readout
Latitude
50.31619°
Longitude
-113.31089°
Altitude
559.058 km
Speed
7.586 km/s
Apparent Right ascension
00h 41m 26s
Apparent Declination
9° 38' 12"
Sunlit
Object is in daylight
Visualization observer readout
Local Sidereal Time
15:05:47
Azimuth
42.234° NE
Elevation
-30.243°
Doppler factor
1
Orbital elements
Apogee altitude
551.148 km
Perigee altitude
540.427 km
Semi-major axis
6,923.925 km
Eccentricity
0.00077
Inclination
98.344°
RAAN
138.939°
Arg. of periapsis
16.3892°
True anomaly
Unknown
Mean anomaly
343.7582°
Eccentric anomaly
Unknown
Mean motion
3.76717 °/min
Orbital period
95.56 mins
BSTAR
0.00028632
Loading maneuver chart data...
Loading SW <> Apogee altitude chart data...
Loading historical data...
Loading historical data...
Loading historical data...
Loading historical data...
Loading historical data...
Loading historical data...
Loading historical data...

TDS 1 Visibility forecast

Observer location: undefined°, undefined°

Span
Click to sort rows by Start time (UTC) header in descending order
Start Az.
Max El. time (UTC)
Max El. Az.
Max El.
End time (UTC)
End Az.
7 mins2025-07-03 09:42:36.991Z22.207° NNE2025-07-03 09:46:36.991Z122.467° SE39.332°2025-07-03 09:49:36.991Z178.812° S
4 mins2025-07-03 20:28:36.991Z110.984° ESE2025-07-03 20:29:36.991Z86.054° E27.115°2025-07-03 20:32:36.991Z15.214° NNE
|